Christchurch Automated, New Zealand

2:27 AM NZDT on February 15, 2016 (GMT +1300)
Christchurch International

Weather History for NZCH - April, 2014

Change the Weather History Date:

Monday, April 14, 2014

  Actual Average Record
Temperature  
Mean Temperature 49 °F -  
Max Temperature 57 °F 60 °F 78 °F (1998)
Min Temperature 41 °F 42 °F 32 °F (2004)
Degree Days  
Heating Degree Days 16    
Moisture  
Dew Point 47 °F    
Average Humidity 88    
Maximum Humidity 100    
Minimum Humidity 72    
Precipitation  
Precipitation 0.00 in - - ()
Sea Level Pressure  
Sea Level Pressure 30.25 in    
Wind  
Wind Speed 8 mph ()    
Max Wind Speed 24 mph    
Max Gust Speed -    
Visibility 6.2 miles    
Events Rain    
Averages and records for this station are not official NWS values.
T = Trace of Precipitation, MM = Missing Value Source: Averaged Metar Reports

Daily Weather History Graph

Daily Weather History Graph

Search for Another Location

Airport or City:

Trip Planner

Search our weather history database for the weather conditions in past years. The results will help you decide how hot, cold, wet, or windy it might be!

Date:

Astronomy

Apr. 14, 2014 Rise Set
Actual Time 7:01 AM NZST 5:58 PM NZST
Civil Twilight 6:32 AM NZST 6:27 PM NZST
Nautical Twilight 5:58 AM NZST 7:00 PM NZST
Astronomical Twilight 5:25 AM NZST 7:33 PM NZST
Moon 5:16 PM NZST 5:30 AM NZST
Length of Visible Light 11h 55m
Length of Day
10h 57m
Waxing Gibbous, 98% of the Moon is Illuminated
Apr 14
Waxing Gibbous
Apr 15
Full
Apr 22
Last Quarter
Apr 29
New
May 7
First Quarter

Hourly Weather History & Observations

Time (NZST) Temp. Windchill Dew Point Humidity Pressure Visibility Wind Dir Wind Speed Gust Speed Precip Events Conditions
12:00 AM 44.6 °F - 42.8 °F 93% 30.39 in 6.2 mi Calm Calm - N/A   Overcast
12:30 AM 42.8 °F - 42.8 °F 100% 30.39 in 6.2 mi Calm Calm - N/A   Scattered Clouds
1:00 AM 42.8 °F - 42.8 °F 100% 30.39 in 6.2 mi Calm Calm - N/A   Mostly Cloudy
1:30 AM 41.0 °F - 41.0 °F 100% 30.36 in 6.2 mi Calm Calm - N/A   Light Drizzle
2:00 AM 41.0 °F - 41.0 °F 100% 30.36 in 6.2 mi Calm Calm - N/A   Overcast
2:30 AM 42.8 °F - 42.8 °F 100% 30.36 in 6.2 mi Calm Calm - N/A   Overcast
3:00 AM 42.8 °F - 42.8 °F 100% 30.36 in 6.2 mi Calm Calm - N/A   Scattered Clouds
3:30 AM 42.8 °F - 42.8 °F 100% 30.33 in 6.2 mi Calm Calm - N/A   Unknown
4:00 AM 41.0 °F - 41.0 °F 100% 30.33 in 6.2 mi Calm Calm - N/A   Scattered Clouds
4:30 AM 42.8 °F 41.1 °F 42.8 °F 100% 30.33 in 6.2 mi NNE 3.5 mph - N/A   Overcast
5:00 AM 44.6 °F 42.2 °F 44.6 °F 100% 30.33 in 6.2 mi NE 4.6 mph - N/A   Overcast
5:30 AM 44.6 °F 42.2 °F 42.8 °F 93% 30.33 in 6.2 mi NE 4.6 mph - N/A   Mostly Cloudy
6:00 AM 42.8 °F 40.1 °F 41.0 °F 93% 30.33 in 6.2 mi NNE 4.6 mph - N/A   Partly Cloudy
6:30 AM 44.6 °F 41.4 °F 41.0 °F 87% 30.30 in 6.2 mi North 5.8 mph - N/A   Partly Cloudy
7:00 AM 44.6 °F 40.7 °F 42.8 °F 93% 30.30 in 6.2 mi North 6.9 mph - N/A   Partly Cloudy
7:30 AM 44.6 °F 41.4 °F 42.8 °F 93% 30.30 in 6.2 mi North 5.8 mph - N/A   Unknown
8:00 AM 46.4 °F 42.9 °F 42.8 °F 87% 30.30 in 6.2 mi North 6.9 mph - N/A   Mostly Cloudy
8:30 AM 48.2 °F - 44.6 °F 87% 30.30 in 6.2 mi NNE 8.1 mph - N/A   Partly Cloudy
9:00 AM 50.0 °F - 44.6 °F 82% 30.30 in 6.2 mi NNE 8.1 mph - N/A   Unknown
9:30 AM 51.8 °F - 46.4 °F 82% 30.30 in 6.2 mi NNE 10.4 mph - N/A   Unknown
10:00 AM 51.8 °F - 46.4 °F 82% 30.30 in 6.2 mi NNE 10.4 mph - N/A   Mostly Cloudy
10:30 AM 53.6 °F - 48.2 °F 82% 30.27 in 6.2 mi NNE 11.5 mph - N/A   Mostly Cloudy
11:00 AM 55.4 °F - 48.2 °F 77% 30.27 in 6.2 mi NE 16.1 mph - N/A   Mostly Cloudy
11:30 AM 55.4 °F - 48.2 °F 77% 30.27 in 6.2 mi NE 17.3 mph - N/A   Overcast
12:00 PM 55.4 °F - 48.2 °F 77% 30.24 in 6.2 mi NE 18.4 mph - N/A   Mostly Cloudy
12:30 PM 57.2 °F - 48.2 °F 72% 30.24 in 6.2 mi NE 19.6 mph - N/A   Mostly Cloudy
1:00 PM 53.6 °F - 48.2 °F 82% 30.24 in 6.2 mi NE 21.9 mph - N/A   Light Drizzle
1:30 PM 55.4 °F - 48.2 °F 77% 30.21 in 6.2 mi NE 18.4 mph - N/A   Overcast
2:00 PM 55.4 °F - 48.2 °F 77% 30.21 in 6.2 mi NE 24.2 mph - N/A   Overcast
2:30 PM 55.4 °F - 48.2 °F 77% 30.21 in 6.2 mi ENE 21.9 mph - N/A   Overcast
3:00 PM 55.4 °F - 50.0 °F 82% 30.18 in 6.2 mi ENE 19.6 mph - N/A   Overcast
3:30 PM 55.4 °F - 50.0 °F 82% 30.18 in 6.2 mi ENE 24.2 mph - N/A   Mostly Cloudy
4:00 PM 55.4 °F - 50.0 °F 82% 30.18 in 6.2 mi ENE 20.7 mph - N/A   Overcast
4:30 PM 55.4 °F - 50.0 °F 82% 30.15 in 6.2 mi ENE 19.6 mph - N/A   Light Drizzle
5:00 PM 55.4 °F - 50.0 °F 82% 30.18 in 6.2 mi ENE 20.7 mph - N/A   Overcast
5:30 PM 55.4 °F - 50.0 °F 82% 30.15 in 6.2 mi ENE 19.6 mph - N/A   Overcast
6:00 PM 55.4 °F - 51.8 °F 88% 30.15 in 6.2 mi NE 18.4 mph - N/A Rain Light Rain Showers
6:30 PM 55.4 °F - 50.0 °F 82% 30.15 in 6.2 mi ENE 20.7 mph - N/A   Mostly Cloudy
7:00 PM 55.4 °F - 51.8 °F 88% 30.15 in 6.2 mi ENE 17.3 mph - N/A   Mostly Cloudy
7:30 PM 55.4 °F - 51.8 °F 88% 30.15 in 6.2 mi ENE 18.4 mph - N/A   Mostly Cloudy
8:00 PM 55.4 °F - 51.8 °F 88% 30.15 in 6.2 mi ENE 19.6 mph - N/A   Mostly Cloudy
8:30 PM 55.4 °F - 51.8 °F 88% 30.15 in 6.2 mi ENE 18.4 mph - N/A   Mostly Cloudy
9:00 PM 55.4 °F - 51.8 °F 88% 30.15 in 6.2 mi ENE 21.9 mph - N/A   Overcast
9:30 PM 55.4 °F - 51.8 °F 88% 30.15 in 6.2 mi NE 19.6 mph - N/A   Overcast
10:00 PM 55.4 °F - 51.8 °F 88% 30.15 in 6.2 mi ENE 19.6 mph - N/A   Overcast
10:30 PM 55.4 °F - 53.6 °F 94% 30.15 in 6.2 mi ENE 16.1 mph - N/A   Light Drizzle
11:00 PM 55.4 °F - 53.6 °F 94% 30.12 in 6.2 mi ENE 15.0 mph - N/A   Overcast
11:30 PM 55.4 °F - 53.6 °F 94% 30.12 in 6.2 mi ENE 18.4 mph - N/A   Mostly Cloudy